| time (UTC) | temp F | wind direction | speed MPH | gust MPH | rain 1hr in | rain 24hr in | rain mn in | humidity % | barometer mb |
| 20260906120315 | 78 | 0.0 | 0.0 | 0.00 | 0.00 | 0.00 | 54 | 1018.6 | |
| 20260906115315 | 78 | 0.0 | 0.0 | 0.00 | 0.00 | 0.00 | 53 | 1018.5 | |
| 20260906114315 | 79 | 0.0 | 0.0 | 0.00 | 0.00 | 0.00 | 52 | 1018.4 | |
| 20260906113315 | 79 | 0.0 | 0.0 | 0.00 | 0.00 | 0.00 | 51 | 1018.3 | |
| 20260906112315 | 81 | 293 | 2.0 | 2.0 | 0.00 | 0.00 | 0.00 | 48 | 1018.5 |
| 20260906111315 | 81 | 0.0 | 0.0 | 0.00 | 0.00 | 0.00 | 46 | 1018.3 | |
| 20260906110355 | 81 | 0.0 | 0.0 | 0.00 | 0.00 | 0.00 | 46 | 1018.2 | |
| 20260906105315 | 81 | 135 | 4.0 | 5.0 | 0.00 | 0.00 | 0.00 | 47 | 1018.1 |
| 20260906104317 | 81 | 113 | 5.0 | 9.0 | 0.00 | 0.00 | 0.00 | 47 | 1018.1 |
| 20260906103317 | 81 | 135 | 4.0 | 8.0 | 0.00 | 0.00 | 0.00 | 48 | 1018.0 |
| 20260906102317 | 81 | 135 | 3.0 | 6.0 | 0.00 | 0.00 | 0.00 | 48 | 1018.1 |
| 20260906101317 | 81 | 113 | 6.0 | 10.0 | 0.00 | 0.00 | 0.00 | 48 | 1018.0 |
| 20260906100317 | 81 | 135 | 4.0 | 6.0 | 0.00 | 0.00 | 0.00 | 48 | 1017.9 |
| 20260906095317 | 81 | 135 | 1.0 | 3.0 | 0.00 | 0.00 | 0.00 | 48 | 1017.9 |
| 20260906094337 | 81 | 135 | 3.0 | 5.0 | 0.00 | 0.00 | 0.00 | 47 | 1017.9 |
| 20260906093317 | 81 | 113 | 4.0 | 6.0 | 0.00 | 0.00 | 0.00 | 47 | 1017.9 |
| 20260906092317 | 82 | 113 | 6.0 | 7.0 | 0.00 | 0.00 | 0.00 | 46 | 1017.8 |
| 20260906091317 | 82 | 113 | 7.0 | 12.0 | 0.00 | 0.00 | 0.00 | 47 | 1017.9 |
| 20260906090317 | 82 | 113 | 8.0 | 13.0 | 0.00 | 0.00 | 0.00 | 47 | 1017.8 |
| 20260906085315 | 82 | 113 | 5.0 | 8.0 | 0.00 | 0.00 | 0.00 | 47 | 1017.8 |
| 20260906084317 | 82 | 113 | 4.0 | 6.0 | 0.00 | 0.00 | 0.00 | 47 | 1017.9 |
| 20260906083317 | 82 | 113 | 5.0 | 8.0 | 0.00 | 0.00 | 0.00 | 46 | 1017.9 |
| 20260906082317 | 81 | 135 | 4.0 | 6.0 | 0.00 | 0.00 | 0.00 | 48 | 1018.0 |
| 20260906081317 | 81 | 0.0 | 0.0 | 0.00 | 0.00 | 0.00 | 50 | 1018.2 | |
| 20260906080317 | 81 | 0.0 | 0.0 | 0.00 | 0.00 | 0.00 | 49 | 1018.0 | |
| 20260906075317 | 81 | 0.0 | 0.0 | 0.00 | 0.00 | 0.00 | 49 | 1018.1 | |
| 20260906074317 | 82 | 0.0 | 0.0 | 0.00 | 0.00 | 0.00 | 48 | 1018.5 | |
| 20260906073317 | 82 | 0.0 | 0.0 | 0.00 | 0.00 | 0.00 | 48 | 1018.0 | |
| 20260906072317 | 82 | 0.0 | 0.0 | 0.00 | 0.00 | 0.00 | 47 | 1018.1 | |
| 20260906071317 | 82 | 0.0 | 0.0 | 0.00 | 0.00 | 0.00 | 47 | 1018.3 | |
| 20260906070317 | 83 | 203 | 3.0 | 6.0 | 0.00 | 0.00 | 0.00 | 46 | 1018.1 |
| 20260906065317 | 83 | 158 | 3.0 | 6.0 | 0.00 | 0.00 | 0.00 | 46 | 1018.1 |
| 20260906064317 | 83 | 135 | 4.0 | 5.0 | 0.00 | 0.00 | 0.00 | 46 | 1018.3 |
| 20260906063317 | 83 | 203 | 3.0 | 4.0 | 0.00 | 0.00 | 0.00 | 45 | 1018.3 |
| 20260906062317 | 83 | 113 | 6.0 | 9.0 | 0.00 | 0.00 | 0.00 | 44 | 1018.2 |
| 20260906061317 | 84 | 135 | 3.0 | 5.0 | 0.00 | 0.00 | 0.00 | 45 | 1018.3 |
| 20260906060317 | 84 | 135 | 4.0 | 7.0 | 0.00 | 0.00 | 0.00 | 44 | 1018.3 |
| 20260906055315 | 84 | 158 | 3.0 | 4.0 | 0.00 | 0.00 | 0.00 | 44 | 1018.3 |
| 20260906054315 | 85 | 135 | 3.0 | 6.0 | 0.00 | 0.00 | 0.00 | 43 | 1018.3 |
| 20260906053315 | 85 | 158 | 2.0 | 3.0 | 0.00 | 0.00 | 0.00 | 43 | 1018.0 |
| 20260906052315 | 85 | 135 | 1.0 | 2.0 | 0.00 | 0.00 | 0.00 | 43 | 1018.3 |
| 20260906051335 | 84 | 135 | 2.0 | 2.0 | 0.00 | 0.00 | 0.00 | 44 | 1018.0 |
| 20260906050315 | 84 | 0.0 | 0.0 | 0.00 | 0.00 | 0.00 | 47 | 1017.7 | |
| 20260906045355 | 84 | 0.0 | 0.0 | 0.00 | 0.00 | 0.00 | 46 | 1017.6 | |
| 20260906044335 | 85 | 0.0 | 0.0 | 0.00 | 0.00 | 0.00 | 45 | 1018.0 | |
| 20260906043315 | 85 | 0.0 | 0.0 | 0.00 | 0.00 | 0.00 | 42 | 1017.6 | |
| 20260906042315 | 85 | 0.0 | 0.0 | 0.00 | 0.00 | 0.00 | 42 | 1017.6 | |
| 20260906041315 | 85 | 0.0 | 0.0 | 0.00 | 0.00 | 0.00 | 42 | 1017.6 | |
| 20260906040315 | 85 | 0.0 | 0.0 | 0.00 | 0.00 | 0.00 | 42 | 1017.2 | |
| 20260906035315 | 85 | 135 | 2.0 | 3.0 | 0.00 | 0.00 | 0.00 | 41 | 1017.1 |
| 20260906034335 | 85 | 90 | 3.0 | 5.0 | 0.00 | 0.00 | 0.00 | 42 | 1017.1 |
| 20260906033335 | 85 | 113 | 1.0 | 4.0 | 0.00 | 0.00 | 0.00 | 42 | 1017.1 |
| 20260906032317 | 86 | 0.0 | 0.0 | 0.00 | 0.00 | 0.00 | 41 | 1016.9 | |
| 20260906031317 | 85 | 90 | 1.0 | 6.0 | 0.00 | 0.00 | 0.00 | 42 | 1016.7 |
| 20260906030317 | 85 | 0.0 | 0.0 | 0.00 | 0.00 | 0.00 | 42 | 1016.3 | |
| 20260906025317 | 85 | 135 | 2.0 | 6.0 | 0.00 | 0.00 | 0.00 | 43 | 1016.1 |
| 20260906024337 | 85 | 113 | 5.0 | 8.0 | 0.00 | 0.00 | 0.00 | 42 | 1015.8 |
| 20260906023317 | 84 | 0.0 | 1.0 | 0.00 | 0.00 | 0.00 | 49 | 1015.7 | |
| 20260906022317 | 84 | 0.0 | 0.0 | 0.00 | 0.00 | 0.00 | 49 | 1015.6 | |
| 20260906021317 | 84 | 0.0 | 2.0 | 0.00 | 0.00 | 0.00 | 48 | 1015.6 | |
| 20260906020337 | 84 | 0.0 | 0.0 | 0.00 | 0.00 | 0.00 | 50 | 1014.7 | |
| 20260906015317 | 85 | 0.0 | 0.0 | 0.00 | 0.00 | 0.00 | 51 | 1014.8 | |
| 20260906014337 | 86 | 0.0 | 0.0 | 0.00 | 0.00 | 0.00 | 48 | 1014.9 | |
| 20260906013317 | 83 | 0.0 | 0.0 | 0.00 | 0.00 | 0.00 | 47 | 1014.0 | |
| 20260906012317 | 84 | 0.0 | 0.0 | 0.00 | 0.00 | 0.00 | 51 | 1014.5 | |
| 20260906011317 | 85 | 0.0 | 0.0 | 0.00 | 0.00 | 0.00 | 44 | 1014.4 | |
| 20260906010317 | 84 | 68 | 4.0 | 10.0 | 0.00 | 0.00 | 0.00 | 45 | 1014.3 |
| 20260906005337 | 85 | 68 | 4.0 | 10.0 | 0.00 | 0.00 | 0.00 | 47 | 1014.7 |
| 20260906004317 | 89 | 45 | 6.0 | 10.0 | 0.00 | 0.00 | 0.00 | 41 | 1015.1 |
| 20260906003317 | 91 | 90 | 3.0 | 7.0 | 0.00 | 0.00 | 0.00 | 36 | 1015.2 |
| 20260906002317 | 95 | 315 | 3.0 | 5.0 | 0.00 | 0.00 | 0.00 | 30 | 1015.7 |
| 20260906001357 | 95 | 0.0 | 2.0 | 0.00 | 0.00 | 0.00 | 30 | 1015.5 | |
| 20260906000318 | 94 | 0.0 | 0.0 | 0.00 | 0.00 | 0.00 | 30 | 1015.5 | |
| 20260905235337 | 95 | 0.0 | 0.0 | 0.00 | 0.00 | 0.00 | 30 | 1015.5 | |
| 20260905234315 | 94 | 0.0 | 1.0 | 0.00 | 0.00 | 0.00 | 31 | 1015.5 | |
| 20260905233317 | 94 | 0.0 | 1.0 | 0.00 | 0.00 | 0.00 | 30 | 1015.4 | |
| 20260905232317 | 94 | 0.0 | 2.0 | 0.00 | 0.00 | 0.00 | 31 | 1015.5 | |
| 20260905231337 | 95 | 293 | 2.0 | 6.0 | 0.00 | 0.00 | 0.00 | 30 | 1015.8 |
| 20260905230317 | 95 | 0.0 | 0.0 | 0.00 | 0.00 | 0.00 | 30 | 1015.6 | |
| 20260905225337 | 95 | 90 | 4.0 | 7.0 | 0.00 | 0.00 | 0.00 | 30 | 1015.5 |
| 20260905224317 | 95 | 293 | 1.0 | 3.0 | 0.00 | 0.00 | 0.00 | 30 | 1015.6 |
| 20260905223315 | 94 | 180 | 5.0 | 7.0 | 0.00 | 0.00 | 0.00 | 31 | 1015.8 |
| 20260905222317 | 94 | 315 | 3.0 | 6.0 | 0.00 | 0.00 | 0.00 | 31 | 1015.9 |
| 20260905221317 | 94 | 225 | 4.0 | 6.0 | 0.00 | 0.00 | 0.00 | 32 | 1016.0 |
| 20260905220337 | 94 | 293 | 3.0 | 4.0 | 0.00 | 0.00 | 0.00 | 30 | 1016.2 |
| 20260905215317 | 94 | 203 | 3.0 | 4.0 | 0.00 | 0.00 | 0.00 | 32 | 1016.3 |
| 20260905214317 | 94 | 135 | 2.0 | 5.0 | 0.00 | 0.00 | 0.00 | 32 | 1016.4 |
| 20260905213317 | 93 | 0.0 | 0.0 | 0.00 | 0.00 | 0.00 | 33 | 1016.5 | |
| 20260905212317 | 94 | 225 | 4.0 | 9.0 | 0.00 | 0.00 | 0.00 | 32 | 1016.9 |
| 20260905211317 | 92 | 0.0 | 0.0 | 0.00 | 0.00 | 0.00 | 33 | 1016.9 | |
| 20260905210317 | 93 | 293 | 3.0 | 5.0 | 0.00 | 0.00 | 0.00 | 32 | 1017.1 |
| 20260905205317 | 94 | 225 | 5.0 | 9.0 | 0.00 | 0.00 | 0.00 | 32 | 1017.5 |
| 20260905204317 | 93 | 248 | 2.0 | 4.0 | 0.00 | 0.00 | 0.00 | 34 | 1017.4 |
| 20260905203317 | 93 | 225 | 3.0 | 6.0 | 0.00 | 0.00 | 0.00 | 34 | 1017.7 |
| 20260905202317 | 93 | 293 | 2.0 | 5.0 | 0.00 | 0.00 | 0.00 | 34 | 1017.8 |
| 20260905201317 | 93 | 225 | 6.0 | 8.0 | 0.00 | 0.00 | 0.00 | 34 | 1018.1 |
| 20260905200317 | 93 | 225 | 5.0 | 8.0 | 0.00 | 0.00 | 0.00 | 34 | 1018.3 |
| 20260905195317 | 92 | 225 | 2.0 | 4.0 | 0.00 | 0.00 | 0.00 | 35 | 1018.5 |
| 20260905194317 | 91 | 0.0 | 1.0 | 0.00 | 0.00 | 0.00 | 37 | 1018.5 | |
| 20260905193317 | 91 | 0.0 | 3.0 | 0.00 | 0.00 | 0.00 | 38 | 1019.1 | |
| 20260905192337 | 90 | 248 | 1.0 | 3.0 | 0.00 | 0.00 | 0.00 | 38 | 1019.0 |
| 20260905191317 | 90 | 0.0 | 0.0 | 0.00 | 0.00 | 0.00 | 40 | 1019.2 | |
| 20260905190317 | 89 | 0.0 | 2.0 | 0.00 | 0.00 | 0.00 | 41 | 1019.3 | |
| 20260905185317 | 89 | 0.0 | 2.0 | 0.00 | 0.00 | 0.00 | 41 | 1019.6 | |
| 20260905184317 | 87 | 0.0 | 0.0 | 0.00 | 0.00 | 0.00 | 43 | 1019.6 | |
| 20260905183337 | 87 | 315 | 3.0 | 6.0 | 0.00 | 0.00 | 0.00 | 42 | 1020.0 |
| 20260905182317 | 87 | 293 | 1.0 | 3.0 | 0.00 | 0.00 | 0.00 | 44 | 1020.2 |
| 20260905181317 | 87 | 293 | 1.0 | 3.0 | 0.00 | 0.00 | 0.00 | 44 | 1020.4 |
| 20260905180317 | 86 | 0.0 | 0.0 | 0.00 | 0.00 | 0.00 | 46 | 1020.5 | |
| 20260905175317 | 86 | 225 | 3.0 | 4.0 | 0.00 | 0.00 | 0.00 | 45 | 1020.6 |
| 20260905174337 | 86 | 0.0 | 0.0 | 0.00 | 0.00 | 0.00 | 45 | 1020.7 | |
| 20260905173317 | 86 | 315 | 4.0 | 5.0 | 0.00 | 0.00 | 0.00 | 45 | 1020.8 |
| 20260905172317 | 86 | 0.0 | 0.0 | 0.00 | 0.00 | 0.00 | 47 | 1021.0 | |
| 20260905171317 | 85 | 225 | 2.0 | 5.0 | 0.00 | 0.00 | 0.00 | 48 | 1021.1 |
| 20260905170317 | 85 | 0.0 | 0.0 | 0.00 | 0.00 | 0.00 | 47 | 1021.1 | |
| 20260905165317 | 83 | 0.0 | 0.0 | 0.00 | 0.00 | 0.00 | 51 | 1021.0 | |
| 20260905164317 | 84 | 225 | 1.0 | 4.0 | 0.00 | 0.00 | 0.00 | 51 | 1021.0 |
| 20260905163317 | 84 | 0.0 | 0.0 | 0.00 | 0.00 | 0.00 | 51 | 1020.9 | |
| 20260905162317 | 82 | 0.0 | 0.0 | 0.00 | 0.00 | 0.00 | 53 | 1020.7 | |
| 20260905161357 | 81 | 0.0 | 0.0 | 0.00 | 0.00 | 0.00 | 55 | 1020.3 | |
| 20260905160317 | 80 | 0.0 | 0.0 | 0.00 | 0.00 | 0.00 | 56 | 1020.8 | |
| 20260905155317 | 80 | 0.0 | 0.0 | 0.00 | 0.00 | 0.00 | 57 | 1020.7 | |
| 20260905154317 | 79 | 0.0 | 0.0 | 0.00 | 0.00 | 0.00 | 57 | 1020.5 | |
| 20260905153317 | 79 | 0.0 | 1.0 | 0.00 | 0.00 | 0.00 | 57 | 1020.8 | |
| 20260905152317 | 79 | 293 | 1.0 | 2.0 | 0.00 | 0.00 | 0.00 | 56 | 1020.8 |
| 20260905151317 | 80 | 0.0 | 0.0 | 0.00 | 0.00 | 0.00 | 56 | 1021.1 | |
| 20260905150317 | 79 | 0.0 | 0.0 | 0.00 | 0.00 | 0.00 | 57 | 1020.8 | |
| 20260905145317 | 79 | 0.0 | 0.0 | 0.00 | 0.00 | 0.00 | 58 | 1020.9 | |
| 20260905144317 | 78 | 0.0 | 0.0 | 0.00 | 0.00 | 0.00 | 60 | 1020.8 | |
| 20260905143317 | 78 | 0.0 | 0.0 | 0.00 | 0.00 | 0.00 | 60 | 1020.8 | |
| 20260905142317 | 78 | 0.0 | 0.0 | 0.00 | 0.00 | 0.00 | 60 | 1020.8 | |
| 20260905141317 | 77 | 0.0 | 0.0 | 0.00 | 0.00 | 0.00 | 62 | 1020.6 | |
| 20260905140317 | 76 | 0.0 | 0.0 | 0.00 | 0.00 | 0.00 | 67 | 1020.8 | |
| 20260905135337 | 73 | 0.0 | 0.0 | 0.00 | 0.00 | 0.00 | 70 | 1020.1 | |
| 20260905134357 | 72 | 0.0 | 0.0 | 0.00 | 0.00 | 0.00 | 73 | 1020.0 | |
| 20260905133337 | 71 | 0.0 | 0.0 | 0.00 | 0.00 | 0.00 | 74 | 1019.8 | |
| 20260905132317 | 71 | 0.0 | 0.0 | 0.00 | 0.00 | 0.00 | 74 | 1019.7 | |
| 20260905131317 | 71 | 0.0 | 0.0 | 0.00 | 0.00 | 0.00 | 76 | 1019.3 | |
| 20260905130317 | 70 | 0.0 | 0.0 | 0.00 | 0.00 | 0.00 | 75 | 1019.3 | |
| 20260905125337 | 71 | 0.0 | 0.0 | 0.00 | 0.00 | 0.00 | 75 | 1019.4 | |
| 20260905124337 | 71 | 0.0 | 0.0 | 0.00 | 0.00 | 0.00 | 74 | 1019.3 | |
| 20260905123317 | 71 | 0.0 | 0.0 | 0.00 | 0.00 | 0.00 | 75 | 1019.4 | |
| 20260905122337 | 71 | 0.0 | 0.0 | 0.00 | 0.00 | 0.00 | 74 | 1019.4 | |
| 20260905121337 | 72 | 0.0 | 0.0 | 0.00 | 0.00 | 0.00 | 74 | 1019.6 |